#timestamp,LO_Frequency,Hit,StdDev 
1514599215.1,286046999.5,N
1514599235.9,286046997.3,N
1514599255.7,286046993.8,N
1514599275.5,286046993.4,N
1514599295.4,286046998.0,N
1514599315.2,286046997.0,N
1514599335.0,286046998.1,N
1514599335.9,286046998.1,N
1514599355.8,286046999.1,N
1514599375.6,286046998.5,N
1514599395.4,286046994.9,N
1514599415.2,286046997.9,N
1514599435.1,286046996.7,N
1514599436.0,286046996.7,N
1514599455.8,286046996.7,N
1514599475.6,286046998.2,N
1514599495.5,286046997.3,N
1514599515.3,286046996.6,N
1514599535.1,286046995.1,N
1514599555.9,286046995.2,N
1514599575.7,286046994.9,N
1514599595.5,286046995.5,N
1514599615.4,286046990.5,Y
1514599635.2,286046992.1,P
1514599655.0,286046990.5,P
1514599655.9,286046990.5,P
1514599675.8,286046991.6,N
1514599695.6,286046992.0,Y
1514599715.4,286046994.1,P
1514599735.3,286046992.8,P
1514599755.1,286046992.0,P
1514599756.0,286046992.0,Y
1514599775.8,286046996.6,P
1514599795.7,286046999.3,N
1514599815.5,286046999.6,N
1514599835.3,286046996.5,N
1514599855.2,286046998.2,N
1514599875.9,286047000.1,N
1514599895.7,286046998.8,N
1514599915.6,286046999.3,N
1514599935.4,286046995.3,N
1514599955.2,286046994.9,N
1514599975.0,286046995.2,N
1514599975.9,286046995.2,N
1514599995.8,286046995.0,N
1514600015.6,286046995.4,N
1514600035.4,286046996.7,N
1514600055.3,286046998.0,N
1514600075.1,286046997.3,N
1514600076.0,286046997.3,N
1514600095.8,286046997.4,N
1514600115.7,286046993.7,Y
1514600135.5,286046999.4,P
1514600155.3,286047004.0,P
1514600175.2,286047005.5,N
1514600195.9,286047007.4,N
1514600215.7,286047010.1,N
1514600235.6,286047013.0,N
1514600255.4,286047015.5,N
1514600275.2,286047011.8,N
1514600295.0,286047008.7,N
1514600296.0,286047008.7,N
1514600315.8,286047006.3,N
1514600335.6,286047008.6,N
1514600355.4,286047008.0,N
1514600375.3,286047002.9,N
1514600395.1,286047001.9,N
1514600415.8,286047005.4,N
1514600435.7,286047009.0,N
1514600455.5,286047003.0,N
1514600475.3,286047002.4,N
1514600495.2,286047001.0,N
1514600515.9,286046993.3,N
1514600535.7,286046992.6,N
1514600555.6,286046988.7,N
1514600575.4,286046988.4,N
1514600595.2,286046988.0,N
1514600615.0,286046985.2,N
1514600616.0,286046985.2,N
1514600635.8,286046984.4,N
1514600655.6,286046986.2,N
1514600675.4,286046989.6,N
1514600695.3,286046987.8,N
1514600715.1,286046989.9,N
1514600735.8,286046991.0,N
1514600755.7,286046990.9,N
1514600775.5,286046990.6,N
1514600795.3,286046990.6,N
1514600815.2,286046997.0,N
1514600835.9,286046997.3,N
1514600855.7,286046997.6,N
1514600875.6,286046995.2,N
1514600895.4,286046990.1,N
1514600915.2,286046991.0,N
1514600935.0,286046991.5,N
1514600936.0,286046991.5,N
1514600955.8,286046991.0,N
1514600975.6,286046994.5,N
1514600995.4,286046991.4,N
1514601015.3,286046993.3,N
1514601035.1,286046996.4,N
1514601055.8,286046995.8,N
1514601075.7,286046994.8,N
1514601095.5,286046996.3,N
1514601115.3,286046996.3,N
1514601135.2,286046991.8,N
1514601155.9,286046994.5,N
1514601175.7,286046993.4,N
1514601195.6,286046993.9,N
1514601215.4,286046996.0,N
1514601235.2,286046994.1,N
1514601255.1,286046995.5,N
1514601256.0,286046995.5,N
1514601275.8,286046992.1,Y
1514601295.6,286046999.9,P
1514601315.5,286047000.0,N
1514601335.3,286047005.5,N
1514601355.1,286047004.8,N
1514601375.9,286047007.6,N
1514601395.7,286047006.6,N
1514601415.5,286047005.3,N
1514601435.3,286047002.2,N
1514601455.2,286047002.2,N
1514601475.0,286046999.9,N
1514601475.9,286046999.9,N
1514601495.7,286047000.2,N
1514601515.6,286046999.9,N
1514601535.4,286046999.4,N
1514601555.2,286046997.5,N
1514601575.1,286046997.3,N
1514601576.0,286046997.3,N
1514601595.8,286046997.0,N
1514601615.6,286046996.6,N
1514601635.5,286046999.2,N
1514601655.3,286046999.3,N
1514601675.1,286046998.9,N
1514601695.8,286046996.0,N
1514601715.7,286046993.4,N
1514601735.5,286046993.7,N
1514601755.3,286046993.7,N
1514601775.2,286046996.4,N
1514601795.9,286046995.9,N
1514601815.7,286046993.3,N
1514601835.6,286046996.3,N
1514601855.4,286046996.3,N
1514601875.2,286046997.4,N
1514601895.1,286046996.5,N
1514601896.0,286046996.5,N
1514601915.8,286046998.9,N
1514601935.6,286046996.7,N
1514601955.5,286046995.2,N
1514601975.3,286046995.8,N
1514601995.1,286046992.5,Y
1514602015.9,286046995.3,P
1514602035.7,286046995.0,P
1514602055.5,286046999.2,N
1514602075.4,286047000.2,N
1514602095.2,286047002.3,N
1514602115.0,286047005.4,N
1514602115.9,286047005.4,N
1514602135.7,286047003.8,N
1514602155.6,286047003.9,N
1514602175.4,286047002.1,N
1514602195.2,286047002.5,N
1514602215.1,286046998.4,N
1514602216.0,286046998.4,N
1514602235.8,286047000.0,N
1514602255.6,286046999.2,N
1514602275.5,286046997.5,N
1514602295.3,286046998.0,N
1514602315.1,286046993.7,N
1514602335.9,286046993.9,N
1514602355.7,286046995.1,N
1514602375.5,286046995.7,N
1514602395.3,286046997.3,N
1514602415.2,286046993.3,N
1514602435.0,286046993.6,N
1514602435.9,286046993.6,N
1514602455.7,286046990.6,N
1514602475.6,286046991.2,N
1514602495.4,286046994.8,N
1514602515.2,286046994.3,N
1514602535.1,286046995.3,N
1514602536.0,286046995.3,N
1514602555.8,286046995.2,N
1514602575.6,286046993.7,N
1514602595.5,286046997.7,N
1514602615.3,286046995.2,N
1514602635.1,286046993.3,N
1514602655.9,286046993.5,N
1514602675.7,286046991.8,N
1514602695.5,286046993.4,N
1514602715.4,286046995.3,N
1514602735.2,286046997.5,N
1514602755.0,286046996.8,N
1514602755.9,286046996.8,N
1514602775.8,286046996.4,N
1514602795.6,286046994.8,N
